This is the latest recevied weather packets stored in our database for station/object KA1JKB. If no packets are shown the sender has not sent any weather packets the latest 10 day(s).
| Time | Temp. | Humidity | Pressure | Rain* | Wind** | Luminosity | Snow |
|---|---|---|---|---|---|---|---|
| 1788202582 | 30° C | 69% | 1013.9 hPa | 0 mm | - | 643 W/m² | - |
| 1788202278 | 30° C | 70% | 1013.9 hPa | 0 mm | - | 608 W/m² | - |
| 1788201978 | 30° C | 70% | 1013.8 hPa | 0 mm | - | 618 W/m² | - |
| 1788201674 | 30° C | 69% | 1014.1 hPa | 0 mm | - | 639 W/m² | - |
| 1788201373 | 30° C | 71% | 1014.1 hPa | 0 mm | - | 665 W/m² | - |
| 1788201073 | 29.44° C | 69% | 1014.2 hPa | 0 mm | - | 632 W/m² | - |
| 1788200772 | 29.44° C | 70% | 1014.4 hPa | 0 mm | - | 715 W/m² | - |
| 1788200468 | 29.44° C | 72% | 1014.4 hPa | 0 mm | - | 706 W/m² | - |
| 1788200167 | 28.89° C | 73% | 1014.4 hPa | 0 mm | - | 723 W/m² | - |
| 1788199862 | 28.33° C | 74% | 1014.3 hPa | 0 mm | - | 745 W/m² | - |
| 1788199574 | 28.33° C | 74% | 1014.4 hPa | 0 mm | - | 685 W/m² | - |
| 1788199253 | 28.33° C | 72% | 1014.3 hPa | 0 mm | - | 427 W/m² | - |
| 1788198947 | 28.33° C | 76% | 1014.3 hPa | 0 mm | - | 781 W/m² | - |
| 1788198645 | 27.78° C | 79% | 1014.2 hPa | 0 mm | - | 526 W/m² | - |
| 1788198345 | 27.22° C | 77% | 1014.2 hPa | 0 mm | - | 425 W/m² | - |
| 1788198044 | 27.22° C | 78% | 1014.3 hPa | 0 mm | - | 292 W/m² | - |
| 1788197743 | 27.22° C | 79% | 1014.6 hPa | 0 mm | - | 262 W/m² | - |
| 1788197440 | 26.67° C | 80% | 1014.6 hPa | 0 mm | - | 269 W/m² | - |
| 1788197140 | 26.67° C | 79% | 1014.7 hPa | 0 mm | - | 285 W/m² | - |
| 1788196835 | 26.11° C | 79% | 1014.8 hPa | 0 mm | - | 192 W/m² | - |
| 1788196530 | 26.67° C | 80% | 1014.8 hPa | 0 mm | - | 145 W/m² | - |
| 1788196227 | 26.67° C | 78% | 1014.4 hPa | 0 mm | - | 150 W/m² | - |
| 1788195923 | 26.67° C | 78% | 1014.7 hPa | 0 mm | - | 153 W/m² | - |
| 1788195620 | 26.67° C | 77% | 1014.8 hPa | 0 mm | - | 163 W/m² | - |
| 1788195322 | 27.22° C | 75% | 1014.9 hPa | 0 mm | - | 192 W/m² | - |
* Rain latest hour (hover to see other rain measurements)
** Current wind speed in m/s (hover to see current wind gust speed)